Regional Weather Roundup
Issued by NWS Mt. Holly, NJ

Home | Current Version | Previous Version | Text Only | Print | Product List | Glossary On
Versions: 1 2 3 4 5 6 7 8 9 10 11 12 13 14 15 16 17 18 19 20 21 22 23 24 25 26 27 28 29 30 31 32 33 34 35 36 37 38 39 40 41 42 43 44 45 46 47 48 49 50
000
ASUS41 KPHI 041212
RWRPHI

REGIONAL WEATHER ROUNDUP
NATIONAL WEATHER SERVICE MOUNT HOLLY NJ
800 AM EDT SAT JUL 04 2015

NOTE:  "FAIR" INDICATES FEW OR NO CLOUDS BELOW 12,000 FEET WITH NO
SIGNIFICANT WEATHER AND/OR OBSTRUCTIONS TO VISIBILITY.

 * = STATION DOES NOT REPORT PRECIPITATION (E.G. RAIN, SNOW, ETC.)
        OR FOG.

NJZ015>026-041300-
SOUTHERN NEW JERSEY

CITY           SKY/WX    TMP DP  RH WIND       PRES   REMARKS
POMONA         PTSUNNY   73  67  81 E9        29.89F
6HR MIN TEMP:  69; 6HR MAX TEMP:  73;

RIO GRANDE*    PTSUNNY   73  63  68 E7        29.88S
MILLVILLE      PTSUNNY   72  67  84 E9        29.89S
WRIGHTSTOWN    CLOUDY    69  67  94 E6        29.90S
MOUNT HOLLY    CLOUDY    69  66  90 VRB6      29.91S
TRENTON        CLOUDY    69  65  86 E7        29.92F
6HR MIN TEMP:  66; 6HR MAX TEMP:  69; 6HR PCP:  0.01;


$$
NJZ001>014-041300-
NORTHERN NEW JERSEY

CITY           SKY/WX    TMP DP  RH WIND       PRES   REMARKS
SUSSEX         LGT RAIN  64  60  87 CALM      29.97S
ANDOVER*         N/A     64  61  90 NE3       29.96S
MORRISTOWN     CLOUDY    72  70  94 CALM      29.95S FOG
NEWARK         CLOUDY    72  58  61 E5        29.94S
TETERBORO      CLOUDY    71  58  63 E3        29.93F
CALDWELL       CLOUDY    69  63  81 NE3       29.95F
SOMERVILLE     CLOUDY    68  64  87 CALM      29.92S
ALLAIRE*       CLOUDY    70  61  73 E7        29.93S
TOMS RIVER*    CLOUDY    72  64  78 E3        29.93R

$$
PAZ043-044-047-054-055-060>062-066>071-041300-
EASTERN PENNSYLVANIA

CITY           SKY/WX    TMP DP  RH WIND       PRES   REMARKS
PHILADELPHIA   PTSUNNY   72  66  81 NE8       29.92R
6HR MIN TEMP:  70; 6HR MAX TEMP:  72; 6HR PCP: TRACE;

NORTH PHILA    CLOUDY    71  64  78 NE5       29.93S
BLUE BELL      CLOUDY    70  66  88 E5        29.92R
DOYLESTOWN     CLOUDY    66  64  93 CALM      29.93S
QUAKERTOWN*    CLOUDY    66  64  94 E5        29.95R
POTTSTOWN      CLOUDY    68  65  90 E5        29.94R
LANCASTER      CLOUDY    67  65  93 E5        29.92R FOG
COATESVILLE    CLOUDY    68  66  94 E5        29.93S FOG
READING        CLOUDY    67  64  90 N3        29.92R
6HR MIN TEMP:  66; 6HR MAX TEMP:  71; 6HR PCP:  0.03;

ALLENTOWN      LGT RAIN  69  64  84 E6        29.94R
6HR MIN TEMP:  67; 6HR MAX TEMP:  72; 6HR PCP:  0.01;

MOUNT POCONO   LGT RAIN  61  58  90 NE3       29.99R FOG
6HR MIN TEMP:  61; 6HR MAX TEMP:  64; 6HR PCP:  0.11;

HAZLETON       RAIN      61  61 100 NW3       30.01R
WILKES BARRE   RAIN      63  61  93 NE3       29.98R FOG

$$
DEZALL-MDZ008-012-015-019-020-041300-
DELAWARE AND EASTERN MARYLAND

CITY           SKY/WX    TMP DP  RH WIND       PRES   REMARKS
WILMINGTON     PTSUNNY   71  67  87 NE9       29.91S
6HR MIN TEMP:  70; 6HR MAX TEMP:  71; 6HR PCP: TRACE;

DOVER          MOSUNNY   75  68  80 NE9       29.87R
GEORGETOWN     CLOUDY    73  69  87 E7        29.87R
6HR MIN TEMP:  69; 6HR MAX TEMP:  73; 6HR PCP:  0.01;

EASTON         SUNNY     75  73  94 E3        29.92R
PATUXENT       PTSUNNY   74  69  85 N5        29.88R
OCEAN CITY     HVY RAIN  73  71  93 E12G20    29.84S VSB 1
WALLOPS ISLAND CLOUDY    74  74 100 N8        29.83R
SALISBURY      SUNNY     74  70  87 NE10      29.85R

$$
PAZ001-021-NYZ056-072-MDZ011-DCZ001-041300-
OTHER NEARBY LOCATIONS

CITY           SKY/WX    TMP DP  RH WIND       PRES   REMARKS
HARRISBURG     LGT RAIN  66  63  90 CALM      29.92R FOG
STATE COLLEGE  LGT RAIN  63  61  94 CALM      29.92S FOG
WILLIAMSPORT   LGT RAIN  62  59  90 NE13      29.93S FOG
BINGHAMTON     RAIN      60  60 100 SE5       29.98R FOG
NEW YORK CITY  CLOUDY    71  57  61 VRB3      29.97F
BALTIMORE      CLOUDY    72  67  84 CALM      29.89S
WASHINGTON DC  CLOUDY    74  68  81 NE3       29.90R

$$



USA.gov is the U.S. government's official web portal to all federal, state and local government web resources and services.